Weather in Russkaya Zhuravka

Russia / Voronezh Oblast     50°21′40″N   40°33′32″E
В апреле 2022 года жителям России запретили посещать сайт meteo.paraplan.net по решению Генеральной прокуратуры. Аудитория сайта уменьшилась в 10 раз. Владельцы сайта не видят смысла в поддержке погодного сервера в таких условиях. Сайт будет закрыт в октябре.
temp.,
°C
wind,
m/s
gust,
m/s
humid.,
%
clouds,
%
prec.,
mm/h
press.,
hPa
HPBL,
m
6 october, thu
thu600:00+8w4108616 0.0 1023350
03:00+7w389523 0.0 1023239
06:00+8w488799 0.1 1024362
09:00+10wnw58715 0.1 1024526
12:00+11wnw5766100 0.0 1025702
15:00+14w576097 0.0 10241222
18:00+12w336923 0.0 102452
21:00+10sw22772 0.0 102425
7 october, fri
fri700:00+10wsw36820 0.0 1024102
03:00+9wsw35860 0.0 102398
06:00+8wsw37885 0.0 1023127
09:00+12w477257 0.0 1023338
12:00+16wnw56603 0.0 1024882
15:00+18nnw56589 0.0 10231208
18:00+14nnw34700 0.0 102563
21:00+11n33780 0.0 102634
8 october, sat
sat800:00+10n22830 0.0 102721
03:00+9nne22890 0.0 102625
06:00+8ene22905 0.0 102715
09:00+12e23735 0.0 1027265
12:00+16ese23535 0.0 1026791
15:00+18ese23435 0.0 10251038
18:00+14ese33565 0.0 102427
21:00+12ese35645 0.0 102472
9 october, sun
sun900:00+11ese336616 0.0 102447
03:00+10ese34735 0.0 102367
06:00+9ese348016 0.0 102268
09:00+13se586523 0.0 1021323
12:00+18sse57475 0.0 10191025
15:00+19sse56375 0.0 10171383
18:00+15se33507 0.0 101721
21:00+14sse2259100 0.0 101611
10 october, mon
mon1000:00+13se1161100 0.0 101610
03:00+14nnw3461100 0.0 101588
06:00+12n51073100 0.0 1016370
09:00+11n71278100 0.1 1017647
12:00+11n61184100 0.2 1018757
15:00+10n71185100 0.7 1019801
18:00+10n71378100 0.6 1020895
21:00+10n8137168 0.8 1021772